Tracking 35274 objects as of 11-Sep-2026
HD Live streaming from Space Station
objects crossing your sky now

NOAA 17 DEB

Track NOAA 17 DEB now!
10-day predictions


NORAD ID: 48702
Int'l Code: 2002-032AL
Launch date: June 24, 2002
Source: United States (US)
Launch site: AIR FORCE WESTERN TEST RANGE (AFWTR)

Note: This is SATELLITE DEBRIS
Your satellite tracking list
Your tracking list is empty




NASA's NSSDC Master Catalog

Two Line Element Set (TLE):
1 48702U 02032AK  26253.25774278  .00013637  00000-0  18616-2 0  9992
2 48702  98.6618 250.9906 0003284 270.6820  89.4012 14.78749682289328
Source of the keplerian elements: AFSPC